Regional Weather Roundup
Issued by NWS Wilmington, NC

Home | Current Version | Previous Version | Text Only | Print | Product List | Glossary On
Versions: 1 2 3 4 5 6 7 8 9 10 11 12 13 14 15 16 17 18 19 20 21 22 23 24 25 26 27 28 29 30 31 32 33 34 35 36 37 38 39 40 41 42 43 44 45 46 47 48 49 50
000
ASUS42 KILM 261010
RWRILM
RWRILM
REGIONAL HOURLY WEATHER ROUNDUP
NATIONAL WEATHER SERVICE WILMINGTON NC
500 AM EST FRI DEC 26 2014

NOTE: "FAIR" INDICATES FEW OR NO CLOUDS BELOW 12,000 FEET WITH NO
SIGNIFICANT WEATHER AND/OR OBSTRUCTIONS TO VISIBILITY.

...............WFO WILMINGTON COUNTY WARNING AREA...............

......COASTAL NC AND SC COUNTIES......

CITY           SKY/WX    TMP DP  RH WIND       PRES   REMARKS
WILMINGTON     CLEAR     37  35  92 CALM      30.26S
SOUTHPORT      CLEAR     38  37  94 CALM      30.27S
N MYRTLE BEACH CLEAR     37  36  96 CALM      30.26F FOG
MYRTLE BEACH   CLEAR     39  36  87 CALM      30.27S

......INLAND NC AND SC COUNTIES.......

CITY           SKY/WX    TMP DP  RH WIND       PRES   REMARKS
LUMBERTON      CLEAR     35  33  92 CALM      30.28R
ELIZABETHTOWN  CLEAR     35  34  96 CALM      30.28R
WHITEVILLE     CLEAR     37  36  95 CALM      30.27R
FLORENCE       CLEAR     37  34  89 N3        30.28R
DARLINGTON     CLEAR     36  30  80 N3        30.29S

....................REST OF NORTH CAROLINA......................

.........EASTERN NC.........

CITY           SKY/WX    TMP DP  RH WIND       PRES   REMARKS
CAPE HATTERAS  CLEAR     43  41  93 N5        30.26R
JACKSONVILLE   CLEAR     32  28  86 CALM      30.28R
MOREHEAD CITY  CLEAR     36  35  96 CALM      30.27S
KENANSVILLE    CLEAR     32  32 100 CALM      30.29R
NEW BERN       FOG       36  33  89 CALM      30.28S VSB 1/2
ELIZABETH CITY CLEAR     37  32  82 CALM      30.26R

.........CENTRAL NC.........

CITY           SKY/WX    TMP DP  RH WIND       PRES   REMARKS
RALEIGH DURHAM PTCLDY    31  28  89 CALM      30.28S
ROCKY MOUNT    CLEAR     33  31  92 CALM      30.29R
ROANOKE RAPIDS NOT AVBL
FAYETTEVILLE   CLEAR     33  32  96 CALM      30.27R
HOFFMAN        PTCLDY    30  30  99 NW2       30.29S

.........WESTERN NC.........

CITY           SKY/WX    TMP DP  RH WIND       PRES   REMARKS
CHARLOTTE      PTCLDY    33  30  88 NW3       30.27F
GREENSBORO     CLEAR     31  28  89 NW3       30.25S
HICKORY        NOT AVBL
BOONE          NOT AVBL
ASHEVILLE      NOT AVBL

.....................REST OF SOUTH CAROLINA.....................

.........EASTERN SC.........

CITY           SKY/WX    TMP DP  RH WIND       PRES   REMARKS
CHARLESTON     CLEAR     36  35  96 NW3       30.27S
BEAUFORT MCAS  CLEAR     38  35  89 CALM      30.27S
HILTON HEAD    NOT AVBL

.........CENTRAL SC.........

CITY           SKY/WX    TMP DP  RH WIND       PRES   REMARKS
COLUMBIA       PTCLDY    33  30  88 CALM      30.28R
ORANGEBURG     CLEAR     36  33  89 CALM      30.28S FOG
SUMTER SHAW    PTCLDY    36  32  87 SW1       30.27R

.........WESTERN SC.........

CITY           SKY/WX    TMP DP  RH WIND       PRES   REMARKS
GREENVILLE     NOT AVBL
ROCK HILL      PTCLDY    30  29  96 CALM      30.27S FOG
ANDERSON       CLEAR     31  30  96 NE3       30.26F
CLEMSON        NOT AVBL
GREENWOOD      CLEAR     30  28  92 CALM      30.29S


...................COASTAL AND OFFSHORE REPORTS..................

................LOCAL PIERS AND NC RESERVE................


STATION/POSITION TIME  SKY/WX   TEMP    WIND        PRES    VSBY
                                AIR SEA DIR/SP/G
                 (UTC)          (F)     (DEG/KT/KT) (MB)    (MI)
JOHNY MRCER PIER 1000            44 55  360/  3/  4 1024.0F
NC RESRV MASNBRO 0900            41     300/  1     1025.0S
OCEAN CREST PIER 1000            44 53  360/  7/  8 1023.9S
SPRINGMAID  PIER 1000            43 53  340/  4/  5 1024.8S


................COASTAL AND OFFSHORE BUOYS................


STATION/POSITION TIME  SKY/WX   TEMP    WIND        PRES    VSBY
                                AIR SEA DIR/SP/G
                 (UTC)          (F)     (DEG/KT/KT) (MB)    (MI)
DIMNDSHOAL 41025 1000            54                 1024.7R
WVE H/P(F/S)=  4/ 8

CAPE LOOKOUT     0900            51      30/  7/  7 1024.7R
ONSLOW BAY 41036 1000            56 60   50/  8/ 10 1025.1R
WVE H/P(F/S)=  3/ 7 WND WVE H/P(F/S)=  2/ 3 SWL H/P/D(F/S/D)=  3/170/ 7

5 WRITEBCH 41038 NOT AVBL
MASONBORO  41110 1000               53                N/A
WVE H/P(F/S)=  2/ 7 WND WVE H/P(F/S)=  2/ 7

WILM HARBR 41108 1000               55                N/A
WVE H/P(F/S)=  2/ 7 WND WVE H/P(F/S)=  2/ 7

27WRITEBCH 41037 0900            53 59   70/  8/ 10 1025.8F
FRYING PAN 41013 1000            58 69   50/  8/ 12 1025.0F
WVE H/P(F/S)=  3/ 7 WND WVE H/P(F/S)=  2/ 3 SWL H/P/D(F/S/D)=  2/170/ 7

SUNST NRSH 41024 0900            49      70/  8/  8   N/A
CAPRS NRSH 41029 0900            51      40/  8/ 10   N/A
EDISTO     41004 1000            60 71   40/  6/  8 1023.9F
WVE H/P(F/S)=  2/ 7 WND WVE H/P(F/S)=  2/ 3 SWL H/P/D(F/S/D)=  2/ 7



..........OFFSHORE BUOYS BEYOND 100 NM OFFSHORE...........
.....IN A TRIANGLE---HAT TO BERMUDA TO BAHAMAS TO HAT.....


STATION/POSITION TIME  SKY/WX   TEMP    WIND        PRES    VSBY
                                AIR SEA DIR/SP/G
                 (UTC)          (F)     (DEG/KT/KT) (MB)    (MI)
150E HAT   41001 NOT AVBL
W BERMUDA  41048 0950            69 73  350/ 17/ 19 1020.6R
WVE H/P(F/S)=  6/10 WND WVE H/P(F/S)=  5/ 7 SWL H/P/D(F/S/D)=  3/290/10

ATLANTIC S 41049 0851            74 77  320/  4/  8 1019.5
WVE H/P(F/S)=  6/13 WND WVE H/P(F/S)=  2/ 3 SWL H/P/D(F/S/D)=  7/ 40/13

E BAHAMAS  41046 0901            77 80   50/ 12/ 14 1019.8
WVE H/P(F/S)=  4/11 WND WVE H/P(F/S)=  2/ 5 SWL H/P/D(F/S/D)=  3/ 60/11

NE BAHAMAS 41047 0908            76 78  230/ 10/ 12 1020.5
WVE H/P(F/S)=  3/ 9 WND WVE H/P(F/S)=  2/ 4 SWL H/P/D(F/S/D)=  3/ 90/ 9

120E CANVRL41010 1000            69 77   30/ 10/ 16 1022.4S
WVE H/P(F/S)=  3/ 7 WND WVE H/P(F/S)=  2/ 4


END


USA.gov is the U.S. government's official web portal to all federal, state and local government web resources and services.